Year,Month,Day,Hour,Minute,Value (Times are PST for barometer in hPa)
2010,04,02,00,00,1006.03
2010,04,02,00,01,1006.03
2010,04,02,00,02,1006.03
2010,04,02,00,03,1005.96
2010,04,02,00,04,1005.96
2010,04,02,00,05,1005.96
2010,04,02,00,06,1005.89
2010,04,02,00,07,1005.89
2010,04,02,00,08,1005.79
2010,04,02,00,09,1005.76
2010,04,02,00,10,1005.72
2010,04,02,00,11,1005.66
2010,04,02,00,12,1005.66
2010,04,02,00,13,1005.62
2010,04,02,00,14,1005.61
2010,04,02,00,15,1005.52
2010,04,02,00,16,1005.45
2010,04,02,00,17,1005.45
2010,04,02,00,18,1005.39
2010,04,02,00,19,1005.39
2010,04,02,00,20,1005.42
2010,04,02,00,21,1005.45
2010,04,02,00,22,1005.49
2010,04,02,00,23,1005.52
2010,04,02,00,24,1005.45
2010,04,02,00,25,1005.35
2010,04,02,00,26,1005.45
2010,04,02,00,27,1005.42
2010,04,02,00,28,1005.44
2010,04,02,00,29,1005.32
2010,04,02,00,30,1005.28
2010,04,02,00,31,1005.32
2010,04,02,00,32,1005.25
2010,04,02,00,33,1005.22
2010,04,02,00,34,1005.18
2010,04,02,00,35,1005.18
2010,04,02,00,36,1005.18
2010,04,02,00,37,1005.22
2010,04,02,00,38,1005.25
2010,04,02,00,39,1005.22
2010,04,02,00,40,1005.15
2010,04,02,00,41,1005.01
2010,04,02,00,42,1004.98
2010,04,02,00,43,1004.84
2010,04,02,00,44,1004.83
2010,04,02,00,45,1004.71
2010,04,02,00,46,1004.67
2010,04,02,00,47,1004.67
2010,04,02,00,48,1004.64
2010,04,02,00,49,1004.64
2010,04,02,00,50,1004.61
2010,04,02,00,51,1004.61
2010,04,02,00,52,1004.57
2010,04,02,00,53,1004.54
2010,04,02,00,54,1004.54
2010,04,02,00,55,1004.54
2010,04,02,00,56,1004.54
2010,04,02,00,57,1004.50
2010,04,02,00,58,1004.50
2010,04,02,00,59,1004.44
2010,04,02,01,00,1004.37
2010,04,02,01,01,1004.34
2010,04,02,01,02,1004.34
2010,04,02,01,03,1004.29
2010,04,02,01,04,1004.20
2010,04,02,01,05,1004.23
2010,04,02,01,06,1004.17
2010,04,02,01,07,1004.17
2010,04,02,01,08,1004.10
2010,04,02,01,09,1004.10
2010,04,02,01,10,1004.06
2010,04,02,01,11,1004.13
2010,04,02,01,12,1004.06
2010,04,02,01,13,1004.03
2010,04,02,01,14,1004.00
2010,04,02,01,15,1004.03
2010,04,02,01,16,1003.93
2010,04,02,01,17,1003.96
2010,04,02,01,18,1003.93
2010,04,02,01,19,1003.93
2010,04,02,01,20,1003.86
2010,04,02,01,21,1003.86
2010,04,02,01,22,1003.76
2010,04,02,01,23,1003.79
2010,04,02,01,24,1003.79
2010,04,02,01,25,1003.73
2010,04,02,01,26,1003.73
2010,04,02,01,27,1003.69
2010,04,02,01,28,1003.73
2010,04,02,01,29,1003.69
2010,04,02,01,30,1003.66
2010,04,02,01,31,1003.66
2010,04,02,01,32,1003.69
2010,04,02,01,33,1003.62
2010,04,02,01,34,1003.66
2010,04,02,01,35,1003.69
2010,04,02,01,36,1003.62
2010,04,02,01,37,1003.62
2010,04,02,01,38,1003.59
2010,04,02,01,39,1003.52
2010,04,02,01,40,1003.46
2010,04,02,01,41,1003.42
2010,04,02,01,42,1003.46
2010,04,02,01,43,1003.39
2010,04,02,01,44,1003.46
2010,04,02,01,45,1003.46
2010,04,02,01,46,1003.42
2010,04,02,01,47,1003.46
2010,04,02,01,48,1003.42
2010,04,02,01,49,1003.46
2010,04,02,01,50,1003.52
2010,04,02,01,51,1003.46
2010,04,02,01,52,1003.49
2010,04,02,01,53,1003.49
2010,04,02,01,54,1003.42
2010,04,02,01,55,1003.42
2010,04,02,01,56,1003.42
2010,04,02,01,57,1003.49
2010,04,02,01,58,1003.49
2010,04,02,01,59,1003.46
2010,04,02,02,00,1003.49
2010,04,02,02,01,1003.46
2010,04,02,02,02,1003.46
2010,04,02,02,03,1003.48
2010,04,02,02,04,1003.39
2010,04,02,02,05,1003.39
2010,04,02,02,06,1003.35
2010,04,02,02,07,1003.32
2010,04,02,02,08,1003.29
2010,04,02,02,09,1003.25
2010,04,02,02,10,1003.22
2010,04,02,02,11,1003.15
2010,04,02,02,12,1003.15
2010,04,02,02,13,1003.12
2010,04,02,02,14,1003.08
2010,04,02,02,15,1003.08
2010,04,02,02,16,1003.05
2010,04,02,02,17,1003.01
2010,04,02,02,18,1002.95
2010,04,02,02,19,1002.91
2010,04,02,02,20,1002.91
2010,04,02,02,21,1002.85
2010,04,02,02,22,1002.88
2010,04,02,02,23,1002.74
2010,04,02,02,24,1002.74
2010,04,02,02,25,1002.71
2010,04,02,02,26,1002.64
2010,04,02,02,27,1002.61
2010,04,02,02,28,1002.64
2010,04,02,02,29,1002.57
2010,04,02,02,30,1002.57
2010,04,02,02,31,1002.51
2010,04,02,02,32,1002.51
2010,04,02,02,33,1002.44
2010,04,02,02,34,1002.44
2010,04,02,02,35,1002.44
2010,04,02,02,36,1002.41
2010,04,02,02,37,1002.34
2010,04,02,02,38,1002.34
2010,04,02,02,39,1002.30
2010,04,02,02,40,1002.34
2010,04,02,02,41,1002.27
2010,04,02,02,42,1002.20
2010,04,02,02,43,1002.20
2010,04,02,02,44,1002.20
2010,04,02,02,45,1002.20
2010,04,02,02,46,1002.13
2010,04,02,02,47,1002.17
2010,04,02,02,48,1002.13
2010,04,02,02,49,1002.07
2010,04,02,02,50,1002.03
2010,04,02,02,51,1002.03
2010,04,02,02,52,1002.07
2010,04,02,02,53,1002.07
2010,04,02,02,54,1002.03
2010,04,02,02,55,1002.07
2010,04,02,02,56,1002.03
2010,04,02,02,57,1002.00
2010,04,02,02,58,1002.00
2010,04,02,02,59,1001.97
2010,04,02,03,00,1001.93
2010,04,02,03,01,1001.86
2010,04,02,03,02,1001.83
2010,04,02,03,03,1001.83
2010,04,02,03,04,1001.80
2010,04,02,03,05,1001.73
2010,04,02,03,06,1001.73
2010,04,02,03,07,1001.69
2010,04,02,03,08,1001.73
2010,04,02,03,09,1001.66
2010,04,02,03,10,1001.66
2010,04,02,03,11,1001.66
2010,04,02,03,12,1001.63
2010,04,02,03,13,1001.63
2010,04,02,03,14,1001.56
2010,04,02,03,15,1001.56
2010,04,02,03,16,1001.49
2010,04,02,03,17,1001.46
2010,04,02,03,18,1001.49
2010,04,02,03,19,1001.49
2010,04,02,03,20,1001.52
2010,04,02,03,21,1001.46
2010,04,02,03,22,1001.49
2010,04,02,03,23,1001.52
2010,04,02,03,24,1001.49
2010,04,02,03,25,1001.49
2010,04,02,03,26,1001.59
2010,04,02,03,27,1001.63
2010,04,02,03,28,1001.59
2010,04,02,03,29,1001.52
2010,04,02,03,30,1001.52
2010,04,02,03,31,1001.46
2010,04,02,03,32,1001.46
2010,04,02,03,33,1001.46
2010,04,02,03,34,1001.42
2010,04,02,03,35,1001.39
2010,04,02,03,36,1001.42
2010,04,02,03,37,1001.35
2010,04,02,03,38,1001.29
2010,04,02,03,39,1001.22
2010,04,02,03,40,1001.19
2010,04,02,03,41,1001.18
2010,04,02,03,42,1001.12
2010,04,02,03,43,1001.12
2010,04,02,03,44,1001.05
2010,04,02,03,45,1001.02
2010,04,02,03,46,1000.95
2010,04,02,03,47,1001.02
2010,04,02,03,48,1000.98
2010,04,02,03,49,1000.98
2010,04,02,03,50,1001.02
2010,04,02,03,51,1001.05
2010,04,02,03,52,1000.98
2010,04,02,03,53,1001.02
2010,04,02,03,54,1000.95
2010,04,02,03,55,1000.95
2010,04,02,03,56,1000.85
2010,04,02,03,57,1000.88
2010,04,02,03,58,1000.81
2010,04,02,03,59,1000.81
2010,04,02,04,00,1000.75
2010,04,02,04,01,1000.75
2010,04,02,04,02,1000.71
2010,04,02,04,03,1000.54
2010,04,02,04,04,1000.58
2010,04,02,04,05,1000.51
2010,04,02,04,06,1000.51
2010,04,02,04,07,1000.51
2010,04,02,04,08,1000.48
2010,04,02,04,09,1000.41
2010,04,02,04,10,1000.31
2010,04,02,04,11,1000.31
2010,04,02,04,12,1000.21
2010,04,02,04,13,1000.20
2010,04,02,04,14,1000.17
2010,04,02,04,15,1000.14
2010,04,02,04,16,1000.10
2010,04,02,04,17,1000.03
2010,04,02,04,18,1000.00
2010,04,02,04,19,1000.03
2010,04,02,04,20,1000.03
2010,04,02,04,21,1000.00
2010,04,02,04,22,1000.03
2010,04,02,04,23,1000.00
2010,04,02,04,24,999.97
2010,04,02,04,25,999.97
2010,04,02,04,26,999.83
2010,04,02,04,27,999.83
2010,04,02,04,28,999.80
2010,04,02,04,29,999.73
2010,04,02,04,30,999.76
2010,04,02,04,31,999.63
2010,04,02,04,32,999.62
2010,04,02,04,33,999.56
2010,04,02,04,34,999.49
2010,04,02,04,35,999.49
2010,04,02,04,36,999.46
2010,04,02,04,37,999.43
2010,04,02,04,38,999.32
2010,04,02,04,39,999.29
2010,04,02,04,40,999.26
2010,04,02,04,41,999.29
2010,04,02,04,42,999.29
2010,04,02,04,43,999.26
2010,04,02,04,44,999.26
2010,04,02,04,45,999.22
2010,04,02,04,46,999.22
2010,04,02,04,47,999.15
2010,04,02,04,48,999.15
2010,04,02,04,49,999.02
2010,04,02,04,50,999.05
2010,04,02,04,51,998.95
2010,04,02,04,52,999.02
2010,04,02,04,53,998.95
2010,04,02,04,54,998.92
2010,04,02,04,55,998.85
2010,04,02,04,56,998.78
2010,04,02,04,57,998.75
2010,04,02,04,58,998.65
2010,04,02,04,59,998.58
2010,04,02,05,00,998.51
2010,04,02,05,01,998.48
2010,04,02,05,02,998.41
2010,04,02,05,03,998.41
2010,04,02,05,04,998.38
2010,04,02,05,05,998.34
2010,04,02,05,06,998.34
2010,04,02,05,07,998.31
2010,04,02,05,08,998.27
2010,04,02,05,09,998.27
2010,04,02,05,10,998.27
2010,04,02,05,11,998.21
2010,04,02,05,12,998.24
2010,04,02,05,13,998.21
2010,04,02,05,14,998.17
2010,04,02,05,15,998.07
2010,04,02,05,16,997.97
2010,04,02,05,17,997.94
2010,04,02,05,18,997.87
2010,04,02,05,19,997.77
2010,04,02,05,20,997.70
2010,04,02,05,21,997.66
2010,04,02,05,22,997.63
2010,04,02,05,23,997.70
2010,04,02,05,24,997.63
2010,04,02,05,25,997.53
2010,04,02,05,26,997.56
2010,04,02,05,27,997.50
2010,04,02,05,28,997.46
2010,04,02,05,29,997.36
2010,04,02,05,30,997.36
2010,04,02,05,31,997.29
2010,04,02,05,32,997.29
2010,04,02,05,33,997.29
2010,04,02,05,34,997.26
2010,04,02,05,35,997.26
2010,04,02,05,36,997.26
2010,04,02,05,37,997.19
2010,04,02,05,38,997.22
2010,04,02,05,39,997.19
2010,04,02,05,40,997.19
2010,04,02,05,41,997.12
2010,04,02,05,42,997.05
2010,04,02,05,43,997.02
2010,04,02,05,44,997.05
2010,04,02,05,45,997.05
2010,04,02,05,46,996.92
2010,04,02,05,47,996.95
2010,04,02,05,48,996.92
2010,04,02,05,49,996.89
2010,04,02,05,50,996.85
2010,04,02,05,51,996.82
2010,04,02,05,52,996.68
2010,04,02,05,53,996.61
2010,04,02,05,54,996.55
2010,04,02,05,55,996.51
2010,04,02,05,56,996.40
2010,04,02,05,57,996.31
2010,04,02,05,58,996.21
2010,04,02,05,59,996.21
2010,04,02,06,00,996.11
2010,04,02,06,01,996.02
2010,04,02,06,02,995.97
2010,04,02,06,03,995.94
2010,04,02,06,04,995.90
2010,04,02,06,05,995.80
2010,04,02,06,06,995.73
2010,04,02,06,07,995.67
2010,04,02,06,08,995.63
2010,04,02,06,09,995.53
2010,04,02,06,10,995.43
2010,04,02,06,11,995.40
2010,04,02,06,12,995.36
2010,04,02,06,13,995.29
2010,04,02,06,14,995.29
2010,04,02,06,15,995.19
2010,04,02,06,16,995.09
2010,04,02,06,17,995.12
2010,04,02,06,18,995.06
2010,04,02,06,19,995.09
2010,04,02,06,20,995.02
2010,04,02,06,21,995.06
2010,04,02,06,22,994.96
2010,04,02,06,23,994.89
2010,04,02,06,24,994.89
2010,04,02,06,25,994.85
2010,04,02,06,26,994.82
2010,04,02,06,27,994.85
2010,04,02,06,28,994.75
2010,04,02,06,29,994.75
2010,04,02,06,30,994.72
2010,04,02,06,31,994.68
2010,04,02,06,32,994.72
2010,04,02,06,33,994.68
2010,04,02,06,34,994.65
2010,04,02,06,35,994.65
2010,04,02,06,36,994.62
2010,04,02,06,37,994.58
2010,04,02,06,38,994.48
2010,04,02,06,39,994.45
2010,04,02,06,40,994.38
2010,04,02,06,41,994.31
2010,04,02,06,42,994.28
2010,04,02,06,43,994.24
2010,04,02,06,44,994.14
2010,04,02,06,45,994.04
2010,04,02,06,46,993.91
2010,04,02,06,47,993.84
2010,04,02,06,48,993.84
2010,04,02,06,49,993.80
2010,04,02,06,50,993.67
2010,04,02,06,51,993.53
2010,04,02,06,52,993.47
2010,04,02,06,53,993.46
2010,04,02,06,54,993.30
2010,04,02,06,55,993.30
2010,04,02,06,56,993.23
2010,04,02,06,57,993.19
2010,04,02,06,58,993.16
2010,04,02,06,59,993.16
2010,04,02,07,00,993.09
2010,04,02,07,01,993.06
2010,04,02,07,02,992.99
2010,04,02,07,03,992.96
2010,04,02,07,04,992.99
2010,04,02,07,05,992.96
2010,04,02,07,06,992.79
2010,04,02,07,07,992.72
2010,04,02,07,08,992.69
2010,04,02,07,09,992.58
2010,04,02,07,10,992.52
2010,04,02,07,11,992.45
2010,04,02,07,12,992.42
2010,04,02,07,13,992.31
2010,04,02,07,14,992.28
2010,04,02,07,15,992.25
2010,04,02,07,16,992.18
2010,04,02,07,17,992.14
2010,04,02,07,18,992.11
2010,04,02,07,19,992.11
2010,04,02,07,20,992.08
2010,04,02,07,21,992.08
2010,04,02,07,22,992.14
2010,04,02,07,23,992.04
2010,04,02,07,24,992.01
2010,04,02,07,25,992.01
2010,04,02,07,26,991.91
2010,04,02,07,27,991.87
2010,04,02,07,28,991.84
2010,04,02,07,29,991.74
2010,04,02,07,30,991.64
2010,04,02,07,31,991.53
2010,04,02,07,32,991.57
2010,04,02,07,33,991.50
2010,04,02,07,34,991.50
2010,04,02,07,35,991.40
2010,04,02,07,36,991.33
2010,04,02,07,37,991.33
2010,04,02,07,38,991.40
2010,04,02,07,39,991.30
2010,04,02,07,40,991.33
2010,04,02,07,41,991.26
2010,04,02,07,42,991.23
2010,04,02,07,43,991.26
2010,04,02,07,44,991.13
2010,04,02,07,45,990.99
2010,04,02,07,46,991.09
2010,04,02,07,47,990.94
2010,04,02,07,48,990.80
2010,04,02,07,49,990.79
2010,04,02,07,50,990.72
2010,04,02,07,51,990.65
2010,04,02,07,52,990.55
2010,04,02,07,53,990.49
2010,04,02,07,54,990.52
2010,04,02,07,55,990.42
2010,04,02,07,56,990.38
2010,04,02,07,57,990.35
2010,04,02,07,58,990.32
2010,04,02,07,59,990.11
2010,04,02,08,00,990.18
2010,04,02,08,01,990.18
2010,04,02,08,02,989.95
2010,04,02,08,03,989.98
2010,04,02,08,04,989.98
2010,04,02,08,05,989.94
2010,04,02,08,06,989.94
2010,04,02,08,07,989.81
2010,04,02,08,08,989.77
2010,04,02,08,09,989.74
2010,04,02,08,10,989.81
2010,04,02,08,11,989.68
2010,04,02,08,12,989.64
2010,04,02,08,13,989.60
2010,04,02,08,14,989.67
2010,04,02,08,15,989.57
2010,04,02,08,16,989.44
2010,04,02,08,17,989.40
2010,04,02,08,18,989.40
2010,04,02,08,19,989.49
2010,04,02,08,20,989.33
2010,04,02,08,21,989.27
2010,04,02,08,22,989.20
2010,04,02,08,23,989.03
2010,04,02,08,24,989.03
2010,04,02,08,25,989.06
2010,04,02,08,26,988.94
2010,04,02,08,27,988.89
2010,04,02,08,28,988.89
2010,04,02,08,29,988.96
2010,04,02,10,19,986.35
2010,04,02,10,20,986.39
2010,04,02,10,21,986.42
2010,04,02,10,22,986.46
2010,04,02,10,23,986.35
2010,04,02,10,24,986.32
2010,04,02,10,25,986.35
2010,04,02,10,26,986.42
2010,04,02,10,27,986.39
2010,04,02,10,28,986.39
2010,04,02,10,29,986.39
2010,04,02,10,30,986.46
2010,04,02,10,31,986.35
2010,04,02,10,32,986.39
2010,04,02,10,33,986.32
2010,04,02,10,34,986.39
2010,04,02,10,35,986.35
2010,04,02,10,36,986.29
2010,04,02,10,37,986.39
2010,04,02,10,38,986.29
2010,04,02,10,39,986.35
2010,04,02,10,40,986.32
2010,04,02,10,41,986.35
2010,04,02,10,42,986.39
2010,04,02,10,43,986.42
2010,04,02,10,44,986.30
2010,04,02,10,45,986.35
2010,04,02,10,46,986.35
2010,04,02,10,47,986.32
2010,04,02,10,48,986.32
2010,04,02,10,49,986.25
2010,04,02,10,50,986.29
2010,04,02,10,51,986.22
2010,04,02,10,52,986.32
2010,04,02,10,53,986.25
2010,04,02,10,54,986.25
2010,04,02,10,55,986.32
2010,04,02,10,56,986.29
2010,04,02,10,57,986.41
2010,04,02,10,58,986.29
2010,04,02,10,59,986.22
2010,04,02,11,00,986.29
2010,04,02,11,01,986.22
2010,04,02,11,02,986.22
2010,04,02,11,03,986.32
2010,04,02,11,04,986.32
2010,04,02,11,05,986.32
2010,04,02,11,06,986.29
2010,04,02,11,07,986.22
2010,04,02,11,08,986.12
2010,04,02,11,09,986.05
2010,04,02,11,10,986.15
2010,04,02,11,11,986.15
2010,04,02,11,12,986.18
2010,04,02,11,13,986.02
2010,04,02,11,14,986.12
2010,04,02,11,15,986.05
2010,04,02,11,16,986.02
2010,04,02,11,17,985.91
2010,04,02,11,18,985.91
2010,04,02,11,19,985.98
2010,04,02,11,20,985.98
2010,04,02,11,21,985.89
2010,04,02,11,22,985.91
2010,04,02,11,23,985.85
2010,04,02,11,24,985.81
2010,04,02,11,25,985.81
2010,04,02,11,26,985.88
2010,04,02,11,27,985.91
2010,04,02,11,28,985.82
2010,04,02,11,29,985.85
2010,04,02,11,30,985.85
2010,04,02,11,31,985.78
2010,04,02,11,32,985.81
2010,04,02,11,33,985.85
2010,04,02,11,34,985.88
2010,04,02,11,35,985.81
2010,04,02,11,36,985.68
2010,04,02,11,37,985.71
2010,04,02,11,38,985.61
2010,04,02,11,39,985.64
2010,04,02,11,40,985.61
2010,04,02,11,41,985.57
2010,04,02,11,42,985.41
2010,04,02,11,43,985.34
2010,04,02,11,44,985.27
2010,04,02,11,45,985.17
2010,04,02,11,46,985.17
2010,04,02,11,47,985.10
2010,04,02,11,48,985.23
2010,04,02,11,49,985.24
2010,04,02,11,50,985.13
2010,04,02,11,51,985.20
2010,04,02,11,52,985.24
2010,04,02,11,53,985.27
2010,04,02,11,54,985.20
2010,04,02,11,55,985.20
2010,04,02,11,56,985.13
2010,04,02,11,57,985.17
2010,04,02,11,58,985.13
2010,04,02,11,59,985.24
2010,04,02,12,00,985.20
2010,04,02,12,01,985.13
2010,04,02,12,02,985.07
2010,04,02,12,03,985.10
2010,04,02,12,04,985.10
2010,04,02,12,05,985.13
2010,04,02,12,06,985.13
2010,04,02,12,07,985.07
2010,04,02,12,08,985.03
2010,04,02,12,09,984.86
2010,04,02,12,10,984.97
2010,04,02,12,11,984.93
2010,04,02,12,12,984.86
2010,04,02,12,13,984.86
2010,04,02,12,14,984.86
2010,04,02,12,15,984.80
2010,04,02,12,16,984.90
2010,04,02,12,17,984.76
2010,04,02,12,18,984.76
2010,04,02,12,19,984.76
2010,04,02,12,20,984.73
2010,04,02,12,21,984.66
2010,04,02,12,22,984.53
2010,04,02,12,23,984.32
2010,04,02,12,24,984.36
2010,04,02,12,25,984.29
2010,04,02,12,26,984.32
2010,04,02,12,27,984.36
2010,04,02,12,28,984.42
2010,04,02,12,29,984.39
2010,04,02,12,30,984.39
2010,04,02,12,31,984.49
2010,04,02,12,32,984.49
2010,04,02,12,33,984.36
2010,04,02,12,34,984.49
2010,04,02,12,35,984.32
2010,04,02,12,36,984.48
2010,04,02,12,37,984.26
2010,04,02,12,38,984.22
2010,04,02,12,39,984.32
2010,04,02,12,40,984.36
2010,04,02,12,41,984.48
2010,04,02,12,42,984.29
2010,04,02,12,43,984.32
2010,04,02,12,44,984.36
2010,04,02,12,45,984.36
2010,04,02,12,46,984.25
2010,04,02,12,47,984.19
2010,04,02,12,48,984.22
2010,04,02,12,49,984.15
2010,04,02,12,50,984.15
2010,04,02,12,51,984.12
2010,04,02,12,52,984.19
2010,04,02,12,53,984.35
2010,04,02,12,54,984.23
2010,04,02,12,55,984.32
2010,04,02,12,56,984.29
2010,04,02,12,57,984.12
2010,04,02,12,58,984.12
2010,04,02,12,59,984.15
2010,04,02,13,00,984.15
2010,04,02,13,01,984.15
2010,04,02,13,02,984.12
2010,04,02,13,03,983.95
2010,04,02,13,04,984.08
2010,04,02,13,05,983.95
2010,04,02,13,06,984.08
2010,04,02,13,07,984.12
2010,04,02,13,08,984.08
2010,04,02,13,09,984.12
2010,04,02,13,10,983.98
2010,04,02,13,11,983.98
2010,04,02,13,12,984.02
2010,04,02,13,13,984.02
2010,04,02,13,14,983.95
2010,04,02,13,15,983.95
2010,04,02,13,16,984.02
2010,04,02,13,17,984.02
2010,04,02,13,18,983.76
2010,04,02,13,19,983.91
2010,04,02,13,20,983.85
2010,04,02,13,21,983.92
2010,04,02,13,22,983.88
2010,04,02,13,23,983.88
2010,04,02,13,24,983.85
2010,04,02,13,25,983.88
2010,04,02,13,26,983.95
2010,04,02,13,27,983.72
2010,04,02,13,28,983.78
2010,04,02,13,29,983.75
2010,04,02,13,30,983.78
2010,04,02,13,31,983.61
2010,04,02,13,32,983.78
2010,04,02,13,33,983.61
2010,04,02,13,34,983.64
2010,04,02,13,35,983.61
2010,04,02,13,36,983.58
2010,04,02,13,37,983.45
2010,04,02,13,38,983.48
2010,04,02,13,39,983.51
2010,04,02,13,40,983.37
2010,04,02,13,41,983.37
2010,04,02,13,42,983.44
2010,04,02,13,43,983.31
2010,04,02,13,44,983.37
2010,04,02,13,45,983.21
2010,04,02,13,46,983.24
2010,04,02,13,47,983.24
2010,04,02,13,48,983.24
2010,04,02,13,49,983.11
2010,04,02,13,50,983.14
2010,04,02,13,51,983.10
2010,04,02,13,52,983.04
2010,04,02,13,53,983.14
2010,04,02,13,54,983.04
2010,04,02,13,55,983.07
2010,04,02,13,56,982.97
2010,04,02,13,57,982.90
2010,04,02,13,58,982.87
2010,04,02,13,59,982.73
2010,04,02,14,00,982.66
2010,04,02,14,01,982.82
2010,04,02,14,02,982.80
2010,04,02,14,03,982.49
2010,04,02,14,04,982.59
2010,04,02,14,05,982.43
2010,04,02,14,06,982.53
2010,04,02,14,07,982.49
2010,04,02,14,08,982.49
2010,04,02,14,09,982.46
2010,04,02,14,10,982.49
2010,04,02,14,11,982.46
2010,04,02,14,12,982.46
2010,04,02,14,13,982.39
2010,04,02,14,14,982.49
2010,04,02,14,15,982.56
2010,04,02,14,16,982.49
2010,04,02,14,17,982.56
2010,04,02,14,18,982.46
2010,04,02,14,19,982.80
2010,04,02,14,20,982.49
2010,04,02,14,21,982.49
2010,04,02,14,22,982.49
2010,04,02,14,23,982.53
2010,04,02,14,24,982.53
2010,04,02,14,25,982.53
2010,04,02,14,26,982.43
2010,04,02,14,27,982.32
2010,04,02,14,28,982.32
2010,04,02,14,29,982.36
2010,04,02,14,30,982.36
2010,04,02,14,31,982.46
2010,04,02,14,32,982.49
2010,04,02,14,33,982.46
2010,04,02,14,34,982.39
2010,04,02,14,35,982.39
2010,04,02,14,36,982.52
2010,04,02,14,37,982.49
2010,04,02,14,38,982.49
2010,04,02,14,39,982.63
2010,04,02,14,40,982.56
2010,04,02,14,41,982.46
2010,04,02,14,42,982.46
2010,04,02,14,43,982.55
2010,04,02,14,44,982.49
2010,04,02,14,45,982.46
2010,04,02,14,46,982.32
2010,04,02,14,47,982.32
2010,04,02,14,48,982.22
2010,04,02,14,49,982.12
2010,04,02,14,50,982.22
2010,04,02,14,51,982.12
2010,04,02,14,52,982.09
2010,04,02,14,53,982.22
2010,04,02,14,54,982.15
2010,04,02,14,55,982.12
2010,04,02,14,56,982.12
2010,04,02,14,57,982.22
2010,04,02,14,58,982.32
2010,04,02,14,59,982.15
2010,04,02,15,00,982.19
2010,04,02,15,01,982.31
2010,04,02,15,02,982.22
2010,04,02,15,03,982.29
2010,04,02,15,04,982.26
2010,04,02,15,05,982.19
2010,04,02,15,06,982.28
2010,04,02,15,07,982.22
2010,04,02,15,08,982.29
2010,04,02,15,09,982.36
2010,04,02,15,10,982.29
2010,04,02,15,11,982.32
2010,04,02,15,12,982.29
2010,04,02,15,13,982.42
2010,04,02,15,14,982.39
2010,04,02,15,15,982.29
2010,04,02,15,16,982.39
2010,04,02,15,17,982.39
2010,04,02,15,18,982.36
2010,04,02,15,19,982.36
2010,04,02,15,20,982.39
2010,04,02,15,21,982.49
2010,04,02,15,22,982.32
2010,04,02,15,23,982.43
2010,04,02,15,24,982.43
2010,04,02,15,25,982.43
2010,04,02,15,26,982.43
2010,04,02,15,27,982.43
2010,04,02,15,28,982.43
2010,04,02,15,29,982.46
2010,04,02,15,30,982.39
2010,04,02,15,31,982.39
2010,04,02,15,32,982.46
2010,04,02,15,33,982.46
2010,04,02,15,34,982.30
2010,04,02,15,35,982.19
2010,04,02,15,36,982.26
2010,04,02,15,37,982.32
2010,04,02,15,38,982.32
2010,04,02,15,39,982.39
2010,04,02,15,40,982.32
2010,04,02,15,41,982.36
2010,04,02,15,42,982.53
2010,04,02,15,43,982.49
2010,04,02,15,44,982.46
2010,04,02,15,45,982.46
2010,04,02,15,46,982.43
2010,04,02,15,47,982.43
2010,04,02,15,48,982.43
2010,04,02,15,49,982.46
2010,04,02,15,50,982.39
2010,04,02,15,51,982.32
2010,04,02,15,52,982.22
2010,04,02,15,53,982.19
2010,04,02,15,54,982.19
2010,04,02,15,55,982.19
2010,04,02,15,56,982.19
2010,04,02,15,57,982.26
2010,04,02,15,58,982.19
2010,04,02,15,59,982.06
2010,04,02,16,00,982.02
2010,04,02,16,01,982.09
2010,04,02,16,02,982.05
2010,04,02,16,03,982.12
2010,04,02,16,04,982.12
2010,04,02,16,05,982.12
2010,04,02,16,06,982.09
2010,04,02,16,07,982.12
2010,04,02,16,08,982.05
2010,04,02,16,09,981.99
2010,04,02,16,10,982.05
2010,04,02,16,11,981.99
2010,04,02,16,12,981.99
2010,04,02,16,13,981.92
2010,04,02,16,14,981.88
2010,04,02,16,15,981.95
2010,04,02,16,16,982.05
2010,04,02,16,17,981.99
2010,04,02,16,18,981.99
2010,04,02,16,19,981.99
2010,04,02,16,20,981.92
2010,04,02,16,21,982.02
2010,04,02,16,22,981.89
2010,04,02,16,23,981.95
2010,04,02,16,24,981.95
2010,04,02,16,25,981.85
2010,04,02,16,26,981.88
2010,04,02,16,27,981.82
2010,04,02,16,28,981.91
2010,04,02,16,29,981.88
2010,04,02,16,30,981.88
2010,04,02,16,31,981.88
2010,04,02,16,32,981.95
2010,04,02,16,33,981.92
2010,04,02,16,34,981.95
2010,04,02,16,35,981.92
2010,04,02,16,36,981.99
2010,04,02,16,37,982.09
2010,04,02,16,38,981.99
2010,04,02,16,39,981.95
2010,04,02,16,40,981.99
2010,04,02,16,41,981.99
2010,04,02,16,42,982.05
2010,04,02,16,43,982.05
2010,04,02,16,44,982.02
2010,04,02,16,45,982.05
2010,04,02,16,46,982.09
2010,04,02,16,47,982.09
2010,04,02,16,48,982.09
2010,04,02,16,49,982.09
2010,04,02,16,50,982.12
2010,04,02,16,51,982.12
2010,04,02,16,52,982.12
2010,04,02,16,53,982.19
2010,04,02,16,54,982.15
2010,04,02,16,55,982.26
2010,04,02,16,56,982.22
2010,04,02,16,57,982.22
2010,04,02,16,58,982.32
2010,04,02,16,59,982.29
2010,04,02,17,00,982.26
2010,04,02,17,01,982.16
2010,04,02,17,02,982.19
2010,04,02,17,03,982.29
2010,04,02,17,04,982.26
2010,04,02,17,05,982.22
2010,04,02,17,06,982.32
2010,04,02,17,07,982.26
2010,04,02,17,08,982.22
2010,04,02,17,09,982.19
2010,04,02,17,10,982.26
2010,04,02,17,11,982.29
2010,04,02,17,12,982.26
2010,04,02,17,13,982.26
2010,04,02,17,14,982.29
2010,04,02,17,15,982.26
2010,04,02,17,16,982.32
2010,04,02,17,17,982.32
2010,04,02,17,18,982.32
2010,04,02,17,19,982.29
2010,04,02,17,20,982.29
2010,04,02,17,21,982.32
2010,04,02,17,22,982.32
2010,04,02,17,23,982.29
2010,04,02,17,24,982.26
2010,04,02,17,25,982.26
2010,04,02,17,26,982.35
2010,04,02,17,27,982.36
2010,04,02,17,28,982.48
2010,04,02,17,29,982.56
2010,04,02,17,30,982.59
2010,04,02,17,31,982.63
2010,04,02,17,32,982.70
2010,04,02,17,33,982.66
2010,04,02,17,34,982.70
2010,04,02,17,35,982.66
2010,04,02,17,36,982.66
2010,04,02,17,37,982.66
2010,04,02,17,38,982.73
2010,04,02,17,39,982.76
2010,04,02,17,40,982.83
2010,04,02,17,41,982.83
2010,04,02,17,42,982.93
2010,04,02,17,43,983.07
2010,04,02,17,44,983.04
2010,04,02,17,45,983.07
2010,04,02,17,46,983.07
2010,04,02,17,47,983.16
2010,04,02,17,48,983.17
2010,04,02,17,49,983.20
2010,04,02,17,50,983.17
2010,04,02,17,51,983.17
2010,04,02,17,52,983.30
2010,04,02,17,53,983.31
2010,04,02,17,54,983.37
2010,04,02,17,55,983.37
2010,04,02,17,56,983.31
2010,04,02,17,57,983.41
2010,04,02,17,58,983.51
2010,04,02,17,59,983.35
2010,04,02,18,00,983.41
2010,04,02,18,01,983.62
2010,04,02,18,02,983.61
2010,04,02,18,03,983.61
2010,04,02,18,04,983.68
2010,04,02,18,05,983.71
2010,04,02,18,06,983.71
2010,04,02,18,07,983.75
2010,04,02,18,08,983.78
2010,04,02,18,09,983.85
2010,04,02,18,10,983.88
2010,04,02,18,11,983.92
2010,04,02,18,12,983.92
2010,04,02,18,13,983.98
2010,04,02,18,14,983.98